Location: Iesi
(43.5167°N, 13.2333°E)
Time: 16:07:02
(UTC+00:00)

Cosmos 1515 - Pass Details

Date: 08 August 2020
Orbit: 505 x 517 km, 82.5° (Epoch: 23 September)

Event Time Altitude Azimuth Distance (km) Brightness Sun altitude
Rises 21:12:45 0° 350° (N) 2,647 8.4 -24.6°
Reaches altitude 10° 21:14:54 10° 350° (N) 1,753 7.3 -24.8°
Enters shadow 21:17:55 54° 341° (NNW) 636 4.4 -25.1°
